Wetbulb
71.26 71.66 71.12 70.49 70.55 70.29 70.08 69.98 70.62 71.57 71.42 72.05 73.19 72.92 72.00 71.37 70.31 68.02 66.89 62.81 59.64 59.11 58.43 57.36 56.23 56.60 56.28 55.78 55.44 54.12 52.83 50.44 47.54 48.41 49.42 50.33 50.41 50.79 51.58 52.79 54.41 52.68 52.43
71.12 70.39 70.65 70.82 71.39 70.70 70.37 70.62 71.27 72.59 72.69 72.71 72.76 72.74 71.51 70.78 69.93 68.16 65.75 63.19 60.70 59.07 58.61 56.79 55.58 58.31 55.37 53.82 52.75 51.61 48.21 48.25 46.15 44.07 47.23 47.33 49.07 51.37 49.26 50.97 52.89 53.54 51.01
71.43 70.64 70.15 69.91 70.04 71.16 71.02 70.85 70.23 71.63 72.72 72.83 72.64 72.21 71.06 70.47 69.46 68.87 67.97 63.77 60.82 60.12 58.22 56.54 55.19 55.50 53.23 50.74 49.56 47.00 46.02 47.23 46.62 46.40 44.92 46.07 46.81 48.76 45.98 50.15 50.20 48.77 52.92
71.25 70.75 70.36 70.85 71.07 70.88 71.50 71.67 71.32 71.68 71.71 72.37 72.91 72.59 71.67 70.65 69.61 68.89 66.43 61.03 59.43 59.05 57.78 56.22 55.52 54.71 52.51 48.89 49.20 46.08 45.44 45.61 46.17 45.82 45.09 45.52 45.71 46.64 44.63 47.21 47.31 48.12 49.90
70.68 70.52 70.72 71.50 72.70 72.65 72.13 72.01 72.03 72.27 72.98 72.27 72.72 72.75 71.74 70.48 69.91 67.58 63.05 60.29 59.25 57.49 56.83 55.81 54.70 55.35 56.56 52.69 48.62 45.72 45.21 45.09 45.29 45.56 45.64 44.66 44.70 45.07 43.49 46.44 45.81 47.44 49.39
70.96 70.82 71.73 72.23 72.38 72.46 72.20 72.15 71.81 72.31 72.65 72.19 73.04 72.77 71.05 71.16 66.06 64.75 63.55 60.43 59.48 57.62 56.56 55.38 54.16 59.76 57.60 58.14 57.72 56.80 50.34 46.10 46.00 45.43 45.20 44.54 44.82 45.22 44.42 44.08 45.97 45.79 44.89
71.04 71.49 71.85 72.48 72.15 72.14 72.28 72.10 71.64 72.33 72.44 72.70 73.27 72.39 71.13 70.36 63.66 62.70 63.25 61.14 59.89 57.83 56.93 55.03 54.09 55.75 55.31 53.33 56.25 52.80 52.99 55.76 57.06 49.11 46.81 45.55 45.80 45.98 44.44 43.89 45.70 45.75 46.02
71.02 71.43 71.97 72.08 72.27 72.18 72.25 72.02 71.98 72.36 72.55 72.85 73.15 72.08 70.98 69.51 62.37 61.00 62.09 60.81 59.81 59.16 58.40 56.83 54.51 52.90 50.03 48.27 43.82 44.34 46.99 48.33 49.60 51.06 50.16 49.12 48.47 49.28 46.42 46.57 46.99 46.74 47.81
71.06 71.43 72.02 72.20 72.18 72.30 71.77 71.81 72.30 72.52 72.35 72.78 73.20 71.18 69.99 67.38 59.69 59.37 61.24 60.49 58.89 58.83 58.57 57.45 53.54 50.06 51.54 50.84 43.60 43.73 43.96 46.74 51.57 52.32 51.87 52.92 53.82 54.54 54.61 47.69 45.20 44.32 43.82
71.12 71.67 72.25 72.69 72.23 72.01 72.40 72.48 72.49 72.77 72.33 72.88 72.50 71.29 67.80 66.77 56.43 56.29 59.29 60.32 57.98 57.94 56.23 55.37 57.48 50.30 51.47 50.20 42.06 42.38 42.10 42.44 42.74 43.48 44.87 47.70 50.30 49.54 56.47 49.40 45.98 44.97 44.29
71.44 71.90 72.23 72.56 72.64 72.65 72.54 72.67 72.67 72.43 72.10 72.27 71.30 69.88 68.98 66.64 58.67 54.24 54.87 59.31 58.84 57.51 56.40 52.92 54.20 51.97 48.93 47.76 45.53 42.28 43.66 44.65 44.84 42.16 44.64 46.58 45.93 45.95 46.98 46.71 48.33 48.48 45.79
70.61 70.93 71.48 72.17 72.67 73.04 72.40 72.52 72.48 72.37 72.46 72.65 71.60 69.20 66.87 62.52 57.21 52.68 53.21 55.99 57.36 58.03 57.78 55.84 52.67 49.93 46.65 46.45 46.06 45.97 47.10 48.35 43.44 43.65 44.40 44.39 44.54 45.84 47.12 46.91 47.21 45.88 48.56
69.97 69.74 70.81 71.97 72.23 72.72 72.40 72.75 72.53 72.63 72.41 73.07 71.17 70.03 65.88 61.80 59.31 52.31 51.69 53.81 54.91 56.82 57.26 56.68 52.52 48.32 45.54 45.94 47.57 47.63 49.01 44.14 42.31 43.44 42.99 43.64 44.63 46.11 46.22 46.54 46.60 46.58 47.09
69.16 69.95 70.53 70.42 71.61 72.72 73.12 73.53 73.10 72.84 72.71 72.75 70.86 69.56 66.79 62.29 59.32 55.42 52.91 53.20 53.00 53.32 54.88 54.73 54.95 50.32 46.96 44.99 45.01 46.38 45.73 43.93 43.28 43.78 43.93 44.13 45.32 44.88 44.58 44.44 43.52 44.87 43.29
70.06 70.34 70.26 70.99 70.04 72.10 73.24 73.56 73.55 74.11 72.80 73.14 72.13 69.91 65.58 62.32 60.60 57.08 52.37 51.93 51.86 50.78 48.41 47.87 47.67 43.94 41.47 40.99 43.18 45.16 45.47 45.98 45.96 45.30 43.43 44.35 44.17 43.93 43.54 43.78 43.65 43.40 40.90
69.81 70.60 70.96 71.50 71.86 72.11 72.49 71.53 54.31 54.66 58.33 56.74 58.45 65.77 67.34 57.81 51.22 48.17 46.59 45.46 46.19 46.00 48.16 47.96 47.11 42.64 42.31 41.90 43.24 44.82 46.28 48.89 45.58 43.80 44.47 43.84 43.75 43.06 42.78 43.39 42.45 41.50 39.65
71.34 71.26 71.75 70.40 72.77 72.57 72.85 72.81 72.13 60.00 48.93 51.12 53.11 54.38 54.99 53.24 49.53 46.01 43.63 44.30 44.34 46.42 51.37 48.39 46.16 44.48 44.70 44.88 46.71 46.88 45.42 45.70 44.42 45.11 43.66 44.38 44.10 43.27 42.95 42.56 41.46 40.79 39.43
72.71 64.45 73.13 72.38 73.23 73.45 73.50 73.56 73.66 71.14 66.67 63.67 51.61 54.46 49.28 48.01 46.17 43.21 42.80 45.14 46.52 48.62 51.78 50.54 48.33 46.55 47.45 47.82 46.80 44.53 45.01 45.11 43.78 43.09 43.16 44.73 42.98 42.53 42.55 41.02 40.90 40.03 39.07
74.23 73.79 73.25 74.61 74.10 72.65 74.01 73.89 73.01 70.97 69.77 65.75 56.09 50.31 46.03 43.40 43.87 42.23 43.58 52.65 49.91 49.82 48.80 49.30 49.01 48.19 48.75 47.99 45.79 45.67 45.49 44.53 42.96 42.26 43.57 43.46 42.52 43.01 40.13 40.61 41.48 42.34 40.94
74.23 69.38 69.51 73.08 72.64 71.72 72.52 71.42 71.16 69.10 67.79 60.80 62.83 62.47 48.28 49.84 50.63 47.07 49.49 51.57 50.38 49.34 48.77 48.94 49.34 49.13 49.12 47.00 46.65 45.72 44.78 44.60 43.77 42.36 44.03 42.14 42.62 41.21 40.32 39.63 41.04 39.98 39.68
73.07 73.10 68.48 72.19 71.18 71.82 72.01 71.70 69.39 68.21 66.35 62.86 64.48 52.82 48.19 57.48 55.40 50.68 48.88 49.55 49.64 48.74 49.60 50.72 49.05 49.06 48.77 46.57 46.75 46.41 45.42 44.91 44.35 43.78 42.23 41.89 42.11 40.18 39.89 40.34 40.89 40.23 39.40
71.22 73.18 72.41 71.03 71.13 72.02 71.81 71.38 67.19 67.04 66.74 61.13 51.96 48.57 44.83 55.57 53.51 51.20 51.09 50.55 50.16 50.90 51.70 50.50 49.88 50.92 49.87 48.37 47.95 46.74 45.06 43.84 43.19 42.64 42.73 41.84 40.13 41.40 41.10 40.76 39.89 39.44 38.79
69.97 69.56 69.49 70.83 70.39 67.35 69.20 69.37 66.73 66.71 60.47 56.62 53.99 50.79 51.00 53.62 52.80 52.60 51.09 51.48 51.49 52.18 53.23 51.32 51.87 52.18 48.35 48.37 48.60 47.06 44.58 44.02 43.44 43.83 43.81 40.55 39.56 40.60 41.33 39.29 39.73 38.24 38.06
66.51 67.42 68.52 67.91 69.18 70.68 70.32 67.85 67.02 61.16 60.38 57.33 55.08 51.48 51.73 52.78 52.15 51.38 51.97 51.74 53.29 54.16 54.02 53.67 53.40 52.64 48.03 47.51 46.45 44.72 44.88 44.20 44.18 44.79 44.17 40.69 40.53 39.32 42.24 40.93 40.50 40.29 39.34
64.52 65.12 66.29 68.11 68.76 69.22 68.21 67.24 66.43 64.21 60.99 56.55 54.48 52.47 52.90 52.13 51.32 51.36 52.51 52.96 53.04 53.00 54.07 53.56 53.79 51.26 49.33 46.65 45.45 45.21 40.31 37.42 43.41 40.77 42.91 42.30 42.36 40.79 42.48 41.74 41.75 40.87 39.84
61.81 63.44 63.90 65.48 67.04 67.73 67.54 66.59 65.31 64.71 59.41 55.78 56.05 53.60 53.30 53.04 51.71 52.43 52.64 52.37 52.50 52.52 53.09 49.79 49.61 49.31 46.90 46.61 45.80 37.75 35.10 34.68 38.66 38.24 43.01 43.15 41.16 41.82 42.14 42.01 41.89 40.26 39.39
MSLP
1012.22 1012.72 1013.20 1013.70 1014.07 1014.44 1014.69 1014.64 1014.74 1014.82 1014.99 1015.26 1015.44 1015.83 1016.08 1016.30 1016.70 1017.02 1017.46 1017.90 1018.27 1018.59 1018.86 1019.20 1019.49 1019.66 1019.95 1020.05 1020.00 1020.03 1020.41 1020.73 1021.10 1020.53 1020.10 1019.45 1019.03 1018.59 1018.10 1017.80 1017.58 1017.20 1016.76
1011.50 1012.14 1012.66 1013.18 1013.66 1014.07 1014.21 1014.17 1014.28 1014.49 1014.78 1015.02 1015.27 1015.54 1015.88 1016.12 1016.54 1016.79 1017.24 1017.59 1018.06 1018.52 1018.76 1019.13 1019.38 1019.45 1019.76 1019.90 1020.02 1020.28 1020.59 1020.80 1021.11 1021.18 1020.49 1019.69 1019.12 1018.80 1018.50 1018.16 1017.49 1016.90 1016.71
1010.88 1011.57 1012.18 1012.64 1013.09 1013.47 1013.52 1013.60 1013.82 1014.12 1014.40 1014.65 1014.92 1015.26 1015.54 1015.82 1016.23 1016.50 1016.83 1017.31 1017.72 1018.04 1018.51 1018.89 1019.13 1019.24 1019.75 1020.12 1020.31 1020.51 1020.65 1020.74 1020.93 1020.88 1020.71 1020.11 1019.56 1019.18 1018.79 1018.14 1017.74 1017.02 1016.41
1010.19 1010.90 1011.43 1011.81 1012.14 1012.65 1012.81 1012.96 1013.25 1013.55 1013.84 1014.19 1014.43 1014.64 1014.96 1015.38 1015.78 1016.03 1016.43 1016.97 1017.42 1017.73 1018.09 1018.42 1018.76 1018.97 1019.32 1019.83 1020.20 1020.32 1020.46 1020.76 1020.86 1020.85 1020.80 1020.53 1020.05 1019.15 1018.76 1018.74 1018.21 1017.53 1016.99
1009.46 1010.15 1010.48 1010.90 1011.48 1012.07 1012.24 1012.25 1012.60 1012.89 1013.11 1013.46 1013.84 1014.10 1014.48 1014.93 1015.23 1015.53 1015.97 1016.68 1017.23 1017.68 1017.92 1018.17 1018.36 1018.66 1018.88 1019.18 1019.64 1020.03 1020.24 1020.50 1020.70 1020.89 1021.00 1020.69 1020.23 1019.66 1019.54 1018.96 1018.74 1018.31 1017.10
1008.64 1009.20 1009.84 1010.38 1010.82 1011.23 1011.49 1011.76 1012.05 1012.24 1012.50 1012.94 1013.24 1013.50 1013.94 1014.28 1014.59 1014.91 1015.39 1016.09 1016.72 1017.27 1017.71 1017.76 1017.96 1018.38 1018.62 1018.95 1019.21 1019.51 1019.66 1020.18 1020.29 1020.52 1020.65 1020.69 1019.92 1019.28 1019.12 1019.03 1018.75 1018.29 1017.74
1007.69 1008.40 1009.06 1009.57 1010.07 1010.39 1010.58 1011.08 1011.31 1011.55 1011.91 1012.36 1012.56 1012.87 1013.19 1013.52 1013.88 1014.43 1015.00 1015.55 1016.27 1016.90 1017.20 1017.55 1018.04 1018.15 1018.56 1018.78 1018.92 1019.08 1019.36 1019.45 1019.44 1019.63 1019.85 1019.70 1019.35 1019.01 1018.87 1018.72 1018.35 1018.23 1017.84
1006.95 1007.61 1008.18 1008.76 1009.33 1009.77 1010.06 1010.19 1010.56 1010.78 1011.10 1011.42 1011.73 1012.08 1012.54 1012.80 1013.31 1014.09 1014.75 1015.19 1015.81 1016.40 1016.96 1017.21 1017.63 1018.05 1018.37 1018.71 1018.97 1019.22 1019.15 1019.08 1019.05 1018.94 1018.92 1018.74 1018.50 1018.07 1018.40 1017.89 1017.70 1017.55 1017.03
1005.98 1006.68 1007.36 1007.92 1008.48 1008.92 1009.11 1009.22 1009.58 1010.02 1010.32 1010.60 1010.86 1011.42 1011.83 1012.42 1013.01 1013.59 1013.98 1014.78 1015.39 1015.69 1016.08 1016.25 1016.67 1017.56 1018.05 1018.56 1018.90 1019.10 1019.24 1018.87 1018.41 1018.12 1017.90 1017.75 1017.56 1017.14 1016.96 1017.52 1017.50 1017.54 1016.82
1004.94 1005.62 1006.28 1006.90 1007.38 1007.69 1007.83 1008.33 1008.82 1009.19 1009.55 1010.02 1010.32 1010.62 1011.08 1011.75 1012.26 1012.86 1013.51 1014.39 1015.02 1015.43 1015.48 1015.97 1016.80 1016.94 1017.38 1017.95 1018.52 1018.97 1018.97 1018.74 1018.36 1017.90 1017.56 1017.28 1016.99 1016.70 1016.37 1016.71 1016.98 1017.10 1016.83
1003.83 1004.61 1005.34 1005.83 1006.18 1006.44 1007.06 1007.64 1008.10 1008.52 1009.04 1009.40 1009.81 1010.10 1010.44 1010.92 1011.92 1012.54 1013.25 1013.98 1014.37 1015.04 1015.83 1016.98 1017.03 1017.16 1017.21 1017.18 1017.86 1018.21 1018.10 1018.24 1018.47 1018.46 1018.00 1017.40 1016.96 1016.73 1016.69 1016.49 1016.27 1016.34 1016.42
1003.06 1003.68 1004.16 1004.61 1005.10 1005.72 1006.34 1006.82 1007.22 1007.72 1008.16 1008.54 1009.02 1009.55 1010.07 1010.78 1011.33 1012.09 1012.72 1012.92 1013.49 1014.31 1015.23 1015.50 1016.08 1016.49 1016.86 1017.13 1017.30 1017.48 1017.75 1017.94 1018.22 1018.38 1018.36 1017.96 1017.63 1017.10 1016.51 1015.98 1015.33 1015.24 1015.07
1002.28 1002.68 1003.10 1003.70 1004.24 1004.83 1005.38 1005.81 1006.40 1006.79 1007.09 1007.48 1008.12 1008.73 1009.30 1010.20 1011.12 1011.59 1012.18 1012.65 1012.96 1013.80 1014.46 1014.95 1015.41 1015.94 1016.75 1016.94 1016.94 1017.07 1017.49 1017.80 1018.07 1018.43 1018.24 1017.92 1017.54 1017.11 1016.50 1015.92 1015.29 1015.01 1014.46
1001.36 1001.86 1002.46 1002.91 1003.27 1003.80 1004.29 1004.78 1005.24 1005.50 1005.76 1006.13 1006.81 1007.45 1008.47 1009.38 1010.48 1011.32 1011.93 1012.70 1013.43 1014.05 1014.18 1014.64 1015.83 1016.54 1015.89 1016.74 1017.22 1017.00 1017.21 1017.48 1017.80 1018.04 1017.84 1017.69 1017.25 1016.68 1016.43 1016.12 1016.03 1015.75 1015.64
1000.71 1001.14 1001.56 1001.91 1002.50 1002.86 1003.06 1003.30 1003.70 1003.54 1003.93 1004.60 1005.28 1006.48 1007.46 1008.36 1008.71 1009.69 1010.98 1012.10 1012.36 1012.74 1014.11 1015.28 1015.94 1016.74 1016.67 1016.72 1016.95 1016.68 1016.56 1016.93 1017.36 1017.33 1017.54 1017.35 1016.96 1016.70 1016.41 1016.02 1015.74 1015.65 1015.96
1000.04 1000.37 1000.51 1000.83 1001.29 1001.80 1002.19 1002.82 1003.24 1003.18 1003.02 1003.59 1004.20 1005.00 1006.11 1006.90 1008.18 1009.05 1009.68 1010.24 1011.43 1012.05 1012.72 1013.60 1015.25 1015.92 1016.24 1016.08 1016.26 1016.13 1016.14 1016.26 1016.51 1016.61 1016.82 1016.77 1016.73 1016.73 1016.62 1016.03 1015.90 1016.06 1016.07
999.04 999.41 999.67 999.99 1000.21 1000.64 1001.14 1001.71 1002.43 1003.52 1003.61 1003.45 1003.77 1004.72 1005.45 1006.20 1006.98 1007.37 1008.66 1010.41 1010.64 1011.68 1012.35 1013.36 1014.02 1014.96 1015.25 1015.34 1015.30 1015.32 1015.36 1015.58 1015.86 1016.15 1016.32 1016.48 1016.64 1016.58 1016.46 1016.38 1016.17 1016.02 1015.87
998.06 998.32 998.72 998.91 999.12 999.53 999.97 1000.36 1001.11 1002.24 1003.28 1004.05 1004.66 1004.74 1005.36 1005.94 1006.99 1008.43 1009.16 1010.29 1011.64 1011.56 1011.78 1011.78 1013.24 1014.04 1014.66 1014.37 1014.42 1014.98 1015.07 1015.32 1015.80 1016.07 1016.26 1016.38 1016.40 1016.62 1016.49 1016.36 1016.28 1016.24 1015.90
997.50 997.76 998.08 998.20 998.46 998.70 999.19 999.72 1000.40 1001.45 1002.51 1003.46 1004.78 1005.53 1005.86 1006.49 1006.54 1007.72 1008.70 1009.06 1009.14 1010.30 1011.32 1011.22 1010.82 1011.95 1013.25 1014.02 1013.72 1014.37 1014.67 1015.00 1015.36 1015.88 1016.10 1016.26 1016.30 1016.31 1016.25 1016.32 1016.22 1016.24 1015.80
997.16 997.24 997.48 997.79 998.12 998.50 998.86 999.46 1000.10 1001.01 1002.00 1002.99 1003.89 1004.60 1006.06 1006.92 1007.62 1008.58 1008.60 1009.81 1010.39 1009.97 1009.97 1010.94 1010.76 1011.38 1012.14 1012.99 1013.43 1013.80 1014.35 1014.90 1015.40 1015.63 1015.85 1015.94 1015.82 1016.04 1016.22 1016.16 1016.13 1016.04 1016.06
997.39 997.30 997.28 997.54 997.84 998.02 998.46 998.88 999.58 1000.45 1001.32 1002.18 1002.82 1003.79 1004.40 1004.92 1005.72 1006.80 1008.07 1007.38 1007.49 1009.08 1009.58 1010.43 1011.04 1010.61 1011.22 1012.18 1012.81 1013.27 1013.80 1014.34 1014.74 1015.04 1015.35 1015.54 1015.66 1015.98 1016.10 1015.92 1016.08 1015.96 1015.80
997.50 997.19 997.18 997.22 997.41 997.69 997.99 998.32 998.98 999.66 1000.48 1001.60 1002.76 1003.27 1003.84 1004.52 1005.07 1005.66 1006.18 1006.76 1007.78 1008.25 1007.79 1009.20 1010.87 1010.35 1010.23 1011.40 1011.96 1012.48 1013.33 1013.85 1014.48 1015.17 1015.48 1015.45 1015.62 1015.64 1015.64 1015.82 1015.93 1015.85 1015.65
997.68 997.19 996.99 997.06 997.14 997.25 997.61 998.01 998.65 999.16 1000.22 1001.11 1002.02 1003.01 1003.82 1004.12 1004.60 1005.10 1005.67 1006.24 1007.14 1008.00 1008.62 1008.45 1009.66 1010.39 1009.99 1010.78 1011.29 1011.91 1012.68 1013.36 1014.00 1014.57 1014.83 1015.21 1015.52 1015.43 1015.58 1015.75 1015.62 1015.69 1015.71
998.52 997.66 996.93 996.74 996.70 996.80 997.02 997.42 997.94 998.58 999.56 1000.54 1001.39 1002.24 1002.91 1003.31 1003.81 1004.09 1004.93 1005.40 1006.80 1007.02 1007.48 1008.27 1009.21 1009.97 1010.14 1010.68 1011.33 1011.82 1012.42 1013.07 1013.56 1014.00 1014.29 1014.78 1015.22 1015.23 1015.08 1015.60 1015.67 1015.56 1015.83
999.18 998.47 997.66 996.67 996.24 996.21 996.51 996.92 997.46 998.23 999.21 1000.04 1000.90 1001.66 1002.19 1002.69 1003.32 1003.92 1004.42 1004.98 1005.82 1006.79 1007.31 1007.60 1008.74 1009.26 1009.62 1010.55 1011.10 1011.62 1012.35 1013.06 1013.42 1013.66 1014.19 1014.78 1015.10 1015.29 1015.33 1015.64 1015.92 1015.80 1015.68
1000.14 999.32 998.58 997.74 996.74 996.51 996.57 996.88 997.34 997.92 998.92 999.77 1000.25 1000.86 1001.41 1002.05 1002.57 1003.13 1003.78 1004.32 1004.79 1005.72 1006.33 1007.74 1008.05 1008.80 1009.09 1010.35 1011.23 1011.84 1012.52 1013.21 1013.54 1013.86 1014.27 1014.80 1015.37 1015.42 1015.38 1015.62 1015.75 1015.93 1016.05
Wind_Speed
15 13 12 10 9 7 7 7 7 6 5 6 6 7 7 7 6 6 6 6 6 5 4 5 4 4 3 3 3 3 3 2 1 4 2 2 3 5 6 5 6 5 5
16 14 13 11 10 9 10 10 6 7 5 6 7 7 6 7 7 7 7 6 7 6 6 6 5 4 4 3 3 3 3 1 2 2 3 3 2 2 4 4 4 5 5
15 14 13 13 12 12 13 12 7 8 7 6 6 7 8 7 7 7 7 6 6 6 7 7 6 6 4 2 2 3 2 2 1 2 3 2 3 2 4 4 4 6 5
16 15 15 15 15 14 14 13 10 9 10 7 7 7 8 8 7 7 7 6 6 6 7 7 7 6 6 5 3 2 1 1 1 1 2 3 2 3 1 1 6 3 6
17 16 17 15 13 12 14 14 11 10 10 8 8 7 7 8 7 8 8 7 7 6 6 6 7 7 10 8 4 3 2 0 1 2 2 2 3 3 2 2 2 4 6
17 17 15 14 13 14 14 13 10 11 10 7 10 9 9 7 12 14 12 8 7 8 7 6 7 9 9 9 8 6 6 3 3 2 2 3 5 4 2 1 1 2 4
17 16 15 14 15 15 15 13 12 13 9 10 11 10 11 10 17 16 15 8 8 7 7 6 5 4 7 5 4 2 5 5 6 5 4 5 4 4 2 3 5 3 4
16 16 15 14 15 14 14 15 12 11 11 12 11 11 10 10 17 16 15 8 7 7 7 7 7 6 7 6 4 1 2 4 4 2 6 7 7 8 6 5 3 4 5
17 16 16 16 15 15 16 16 13 11 11 11 9 11 12 9 15 16 15 8 7 8 7 8 9 8 10 9 4 2 3 5 4 6 8 12 14 14 10 2 3 1 4
18 18 17 16 17 17 17 15 12 11 11 7 9 11 13 12 16 17 15 8 8 6 5 6 12 10 14 12 6 5 2 4 4 7 6 6 6 7 4 5 2 3 2
17 16 16 16 17 17 14 12 11 11 7 9 10 10 12 13 12 17 15 9 9 7 6 3 3 11 13 12 9 6 7 3 4 4 5 5 4 4 3 2 4 5 2
15 15 17 17 14 12 13 11 12 11 11 11 11 9 7 6 11 14 16 12 11 9 8 6 7 14 13 12 9 9 7 3 2 4 3 4 3 4 4 5 6 3 6
13 16 16 15 14 14 14 14 11 12 12 12 10 10 8 8 7 13 16 14 13 7 5 7 12 16 13 9 10 8 5 3 1 1 3 3 3 4 6 5 6 5 4
15 15 13 14 14 14 11 11 12 12 13 12 11 11 7 8 8 8 9 7 8 6 7 4 5 9 9 5 3 5 4 4 4 3 3 3 3 3 3 1 2 3 3
14 13 13 12 12 12 14 13 14 15 15 13 13 12 11 10 12 13 13 10 10 8 9 4 3 1 4 3 4 5 4 3 4 3 2 3 2 2 3 2 1 1 2
13 12 12 11 11 11 11 10 6 5 14 13 13 13 10 6 17 17 19 18 18 21 5 7 5 5 6 5 5 5 3 6 5 4 3 2 2 2 3 3 1 2 1
15 13 11 12 11 11 12 12 12 4 10 7 18 16 16 15 23 24 22 21 21 17 8 7 8 8 7 6 6 5 5 5 5 4 3 2 2 3 3 3 1 1 2
14 12 10 10 11 10 11 12 10 9 8 5 4 7 14 19 16 15 16 15 9 10 8 10 7 7 5 6 5 5 4 4 3 3 2 2 2 2 3 2 0 1 1
10 7 8 7 8 9 8 9 7 7 8 8 4 2 4 8 16 20 24 10 12 13 8 8 10 9 6 5 5 5 5 5 4 3 2 2 2 1 2 1 2 1 1
6 9 6 5 5 5 5 7 7 8 8 8 9 9 5 6 7 9 10 6 6 8 8 8 8 7 5 6 6 5 5 4 4 3 3 2 1 1 1 1 2 1 1
3 4 7 4 4 6 7 9 8 9 9 9 8 7 13 11 11 11 11 8 12 7 7 7 6 7 6 6 6 6 6 5 5 5 4 2 2 1 0 2 3 2 0
4 3 3 5 5 6 7 8 9 10 9 8 5 7 16 7 9 11 12 10 7 7 9 9 7 7 8 9 9 7 6 5 5 4 3 4 2 2 3 2 2 1 2
4 3 2 3 5 7 7 8 9 9 9 9 9 8 9 9 9 10 10 8 9 7 5 7 8 7 5 6 6 7 7 6 6 6 6 5 3 2 2 2 4 1 1
8 6 4 5 6 8 9 10 10 11 10 10 9 8 9 9 10 12 10 9 7 7 7 7 7 8 8 6 5 5 5 6 6 6 8 6 4 2 3 2 3 3 1
9 9 7 5 6 9 9 9 10 10 10 10 9 8 8 7 9 9 9 9 8 6 6 6 6 10 13 12 9 10 12 12 8 8 6 6 6 4 4 3 2 1 3
12 11 9 8 4 1 5 7 8 9 9 9 9 9 10 8 10 11 10 10 10 9 7 6 9 12 16 12 13 16 12 10 8 10 6 5 5 3 4 5 6 2 2
Wind_Direction
193 193 196 199 206 207 218 229 225 239 243 206 185 171 171 160 157 147 156 153 152 155 144 137 124 120 77 72 65 74 71 95 169 303 271 317 358 355 348 348 344 331 322
192 193 196 195 201 204 222 231 218 225 225 209 178 180 171 175 169 158 167 169 170 173 159 140 146 118 91 77 76 75 75 71 141 260 278 300 290 330 296 313 323 331 321
186 190 196 201 204 210 222 228 221 221 220 213 200 178 185 181 179 175 169 180 186 181 165 159 164 138 132 108 93 83 43 41 110 156 281 298 295 339 327 314 312 313 322
186 189 196 201 206 208 219 225 222 220 222 208 205 196 189 181 183 172 163 175 168 166 161 162 161 161 153 145 135 131 123 44 3 1 297 286 276 291 264 312 336 335 325
186 192 201 203 203 204 217 223 222 217 220 201 204 201 191 181 187 173 162 168 164 165 164 161 169 175 162 161 152 188 143 3 345 321 299 293 290 317 326 276 271 312 303
189 196 198 198 197 202 215 222 218 223 215 182 208 197 192 194 182 178 163 165 171 169 179 182 183 180 167 172 178 191 177 177 249 203 234 253 259 236 250 262 269 312 317
191 193 196 196 201 204 211 215 218 221 211 194 209 196 197 192 179 179 168 170 171 174 183 177 188 165 169 186 191 305 298 289 250 184 230 227 270 220 217 257 241 212 227
193 195 195 195 202 206 211 217 218 220 213 201 204 198 195 196 181 176 173 168 170 181 181 187 179 164 173 163 175 240 318 308 284 208 232 253 237 265 206 220 247 248 269
194 196 197 197 200 204 213 217 216 220 219 206 199 191 195 194 179 175 175 165 174 186 183 182 164 161 181 170 162 153 317 290 288 297 285 279 280 275 253 171 290 332 291
194 197 197 198 203 207 212 215 217 220 223 197 199 197 194 186 185 178 170 163 176 182 185 173 174 169 171 171 162 171 217 262 319 335 342 335 336 331 6 196 178 268 275
193 195 198 201 206 212 212 208 210 216 207 199 197 194 194 190 179 184 163 171 183 184 167 173 210 174 175 172 167 181 204 179 309 328 310 304 310 310 327 305 222 205 233
191 191 196 201 205 206 203 203 207 201 206 202 201 196 188 175 179 183 178 178 181 177 182 177 192 179 181 185 178 207 218 231 332 330 317 308 318 320 305 302 285 233 211
187 199 201 202 205 204 198 204 205 205 209 212 207 208 187 168 178 179 179 178 167 155 159 190 166 179 187 195 207 209 187 193 224 287 280 276 253 278 291 312 326 332 313
197 203 202 202 202 205 205 206 206 210 213 214 206 207 184 163 168 180 192 166 126 126 169 180 173 194 171 179 232 236 214 199 192 230 243 263 286 317 309 293 302 326 7
205 209 208 211 205 207 213 207 214 219 210 209 208 199 180 188 193 178 174 177 179 167 108 106 113 137 199 197 234 231 228 181 202 209 227 265 287 293 291 303 313 356 68
205 208 210 209 211 213 213 215 60 335 212 205 188 191 196 160 156 179 178 164 156 150 141 142 165 193 206 205 205 218 195 205 197 190 215 209 241 282 295 312 29 87 62
207 212 212 210 212 209 214 217 226 53 46 202 167 162 170 167 175 181 164 165 165 154 172 161 176 192 211 204 201 198 183 184 170 190 194 219 253 286 319 339 316 80 355
217 209 207 208 212 211 211 218 219 203 187 165 53 147 164 181 170 159 151 127 162 200 193 165 182 193 212 205 187 174 176 154 166 184 179 227 256 280 322 345 206 178 307
207 205 206 212 211 212 204 209 194 180 185 161 119 72 78 148 158 156 160 194 176 187 197 180 176 176 189 217 166 173 160 167 171 150 170 217 286 301 301 9 170 245 38
215 214 187 197 191 182 170 167 165 168 166 156 183 183 129 120 157 168 176 187 209 204 180 194 182 167 178 178 168 159 159 159 154 166 200 216 247 185 256 20 139 145 326
249 231 210 208 181 175 171 178 164 174 170 183 188 159 175 180 176 170 185 182 183 178 170 184 199 170 168 165 168 161 164 161 169 177 178 198 105 108 77 117 143 145 287
328 255 230 207 182 183 187 179 165 172 175 159 157 165 164 175 173 173 180 182 181 181 165 171 202 198 167 172 175 162 155 161 154 146 143 113 108 152 113 123 162 188 300
311 309 321 277 193 184 172 173 171 170 163 159 163 156 179 180 178 178 171 170 166 170 196 160 180 211 160 167 168 155 154 161 160 153 145 136 128 117 107 148 177 172 330
328 315 294 265 193 189 185 177 180 170 162 159 168 166 178 180 179 172 179 156 169 175 168 171 186 190 166 153 144 148 132 128 143 153 142 141 151 138 111 100 166 219 315
347 337 322 286 205 192 179 177 176 164 163 160 164 170 175 166 166 164 161 157 165 175 182 151 177 181 165 149 150 138 131 137 142 143 123 124 136 126 100 84 131 90 26
352 356 352 343 359 316 190 166 171 163 159 165 167 166 167 164 165 165 168 168 164 175 146 159 167 163 146 145 140 130 134 139 133 127 126 125 126 110 93 89 113 102 18